Chamberlain, SD

7:38 AM CDT on April 24, 2018 (GMT -0500)
Chamberlain

Weather History for K9V9 - April, 2013

Change the Weather History Date:

Tuesday, April 2, 2013

  Actual Average Record
Temperature  
Mean Temperature 37 °F -  
Max Temperature 54 °F 49 °F 68 °F (2004)
Min Temperature 21 °F 28 °F 12 °F (2009)
Degree Days  
Heating Degree Days 28    
Moisture  
Dew Point 18 °F    
Average Humidity 51    
Maximum Humidity 72    
Minimum Humidity 27    
Precipitation  
Precipitation 0.00 in - - ()
Sea Level Pressure  
Sea Level Pressure 30.26 in    
Wind  
Wind Speed 8 mph (ESE)    
Max Wind Speed 15 mph    
Max Gust Speed 25 mph    
Averages and records for this station are not official NWS values.
T = Trace of Precipitation, MM = Missing Value Source: NWS Daily Summary

Daily Weather History Graph

Daily Weather History Graph

Search for Another Location

Airport or City:

Astronomy

Apr. 02, 2013 Rise Set
Actual Time 7:16 AM CDT 8:05 PM CDT
Civil Twilight 6:47 AM CDT 8:34 PM CDT
Nautical Twilight 6:12 AM CDT 9:09 PM CDT
Astronomical Twilight 5:36 AM CDT 9:45 PM CDT
Moon 2:19 AM CDT (4/2) 12:01 PM CDT (4/2)
Length of Visible Light 13h 47m
Length of Day
12h 49m
Waning Gibbous, 55% of the Moon is Illuminated
Apr 2
Waning Gibbous
Apr 2
Last Quarter
Apr 10
New
Apr 18
First Quarter
Apr 25
Full

Hourly Weather History & Observations

Time (CDT) Temp. Windchill Dew Point Humidity Pressure Visibility Wind Dir Wind Speed Gust Speed Precip Events Conditions
12:52 AM 23.0 °F 15.8 °F 12.9 °F 65% 30.30 in - SSE 5.8 mph - N/A   Unknown
1:52 AM 21.9 °F 13.4 °F 12.9 °F 68% 30.30 in - SSE 6.9 mph - N/A   Unknown
2:52 AM 21.9 °F 13.4 °F 12.9 °F 68% 30.30 in - SSE 6.9 mph - N/A   Unknown
3:52 AM 23.0 °F 14.7 °F 14.0 °F 68% 30.28 in - SE 6.9 mph - N/A   Unknown
4:52 AM 21.9 °F 14.5 °F 14.0 °F 72% 30.27 in - SE 5.8 mph - N/A   Unknown
5:52 AM 23.0 °F 17.0 °F 14.0 °F 68% 30.27 in - ESE 4.6 mph - N/A   Unknown
6:52 AM 24.1 °F 18.2 °F 16.0 °F 71% 30.27 in - ESE 4.6 mph - N/A   Unknown
7:52 AM 26.1 °F 20.5 °F 18.0 °F 71% 30.27 in - ESE 4.6 mph 25.3 mph N/A   Unknown
8:52 AM 28.0 °F 21.7 °F 19.9 °F 72% 30.27 in - ESE 5.8 mph - N/A   Unknown
9:52 AM 36.0 °F 32.1 °F 21.9 °F 57% 30.27 in - ESE 4.6 mph 17.3 mph N/A   Unknown
10:52 AM 44.1 °F 38.6 °F 21.0 °F 40% 30.27 in - ESE 10.4 mph - N/A   Unknown
11:52 AM 48.0 °F - 18.0 °F 30% 30.26 in - East 10.4 mph 21.9 mph N/A   Unknown
12:52 PM 48.9 °F - 19.0 °F 31% 30.26 in - ESE 11.5 mph 19.6 mph N/A   Unknown
1:52 PM 50.0 °F - 19.9 °F 31% 30.25 in - ESE 9.2 mph 18.4 mph N/A   Unknown
2:52 PM 53.1 °F - 21.0 °F 29% 30.24 in - East 11.5 mph 17.3 mph N/A   Unknown
3:52 PM 53.1 °F - 19.9 °F 27% 30.23 in - Variable 5.8 mph - N/A   Unknown
4:52 PM 53.1 °F - 19.9 °F 27% 30.22 in - East 9.2 mph 16.1 mph N/A   Unknown
5:52 PM 52.0 °F - 19.9 °F 28% 30.22 in - East 8.1 mph - N/A   Unknown
6:52 PM 50.0 °F - 19.9 °F 31% 30.23 in - East 15.0 mph - N/A   Unknown
7:52 PM 45.0 °F 39.7 °F 19.9 °F 37% 30.23 in - East 10.4 mph - N/A   Unknown
8:52 PM 39.0 °F 31.8 °F 21.0 °F 49% 30.24 in - East 11.5 mph - N/A   Unknown
9:52 PM 35.1 °F 26.9 °F 19.9 °F 54% 30.25 in - East 11.5 mph - N/A   Unknown
10:52 PM 33.1 °F 24.4 °F 21.0 °F 61% 30.25 in - East 11.5 mph - N/A   Unknown
11:52 PM 33.1 °F 23.9 °F 21.9 °F 64% 30.24 in - ESE 12.7 mph - N/A   Unknown